Location: Sungai Laei
(2.6000°N, 113.7167°E)
Time: 10:54:22
(UTC+00:00)

Cosmos 2058 - Pass Details

Date: 22 May 2022
Orbit: 560 x 580 km, 82.5° (Epoch: 06 July)

Event Time Altitude Azimuth Distance (km) Brightness Sun altitude
Rises 21:42:30 0° 198° (SSW) 2,742 6.0 -8.3°
Reaches altitude 10° 21:44:47 10° 206° (SSW) 1,845 5.1 -7.7°
Maximum altitude 21:48:33 37° 274° (W) 875 3.4 -6.9°
Drops below altitude 10° 21:52:19 10° 342° (NNW) 1,843 5.6 -6.0°
Sets 21:54:36 0° 351° (N) 2,739 6.5 -5.5°
